| time (UTC) | temp F | wind direction | speed knots | gust knots | rain 1hr in | rain 24hr in | rain mn in | humidity % | barometer mb |
| 20260905232922 | 49 | 79 | 2.6 | 10.4 | 0.00 | 0.00 | 0.00 | 10 | 963.1 |
| 20260905232422 | 49 | 63 | 2.6 | 10.4 | 0.00 | 0.00 | 0.00 | 10 | 963.0 |
| 20260905231922 | 49 | 156 | 2.6 | 10.4 | 0.00 | 0.00 | 0.00 | 10 | 963.0 |
| 20260905231421 | 49 | 105 | 2.6 | 7.8 | 0.00 | 0.00 | 0.00 | 10 | 962.8 |
| 20260905230921 | 49 | 66 | 2.6 | 8.7 | 0.00 | 0.00 | 0.00 | 99 | 962.8 |
| 20260905230421 | 50 | 275 | 2.6 | 8.7 | 0.00 | 0.00 | 0.00 | 99 | 962.8 |
| 20260905225921 | 50 | 103 | 2.6 | 7.8 | 0.00 | 0.00 | 0.00 | 99 | 962.7 |
| 20260905225421 | 50 | 165 | 2.6 | 7.8 | 0.00 | 0.00 | 0.00 | 99 | 962.6 |
| 20260905224921 | 50 | 128 | 2.6 | 7.8 | 0.00 | 0.00 | 0.00 | 99 | 962.6 |
| 20260905224421 | 50 | 144 | 2.6 | 9.6 | 0.00 | 0.00 | 0.00 | 99 | 962.5 |
| 20260905223921 | 50 | 4 | 3.5 | 10.4 | 0.00 | 0.00 | 0.00 | 98 | 962.5 |
| 20260905223421 | 51 | 227 | 3.5 | 10.4 | 0.00 | 0.00 | 0.00 | 98 | 962.4 |
| 20260905222921 | 51 | 159 | 4.3 | 10.4 | 0.00 | 0.00 | 0.00 | 98 | 962.4 |
| 20260905222421 | 51 | 221 | 4.3 | 10.4 | 0.00 | 0.00 | 0.00 | 98 | 962.2 |
| 20260905221921 | 51 | 99 | 3.5 | 9.6 | 0.00 | 0.00 | 0.00 | 98 | 962.2 |
| 20260905221421 | 51 | 189 | 3.5 | 10.4 | 0.00 | 0.00 | 0.00 | 98 | 962.2 |
| 20260905220921 | 51 | 233 | 4.3 | 10.4 | 0.00 | 0.00 | 0.00 | 98 | 962.0 |
| 20260905220420 | 51 | 237 | 4.3 | 10.4 | 0.00 | 0.00 | 0.00 | 98 | 962.0 |
| 20260905215920 | 51 | 223 | 3.5 | 12.2 | 0.00 | 0.00 | 0.00 | 99 | 961.8 |
| 20260905215420 | 51 | 202 | 3.5 | 12.2 | 0.00 | 0.00 | 0.00 | 99 | 961.8 |
| 20260905214920 | 51 | 258 | 3.5 | 8.7 | 0.00 | 0.00 | 0.00 | 10 | 961.8 |
| 20260905214420 | 52 | 222 | 3.5 | 8.7 | 0.00 | 0.00 | 0.00 | 99 | 961.8 |
| 20260905213920 | 52 | 201 | 2.6 | 8.7 | 0.00 | 0.00 | 0.00 | 99 | 961.7 |
| 20260905213420 | 52 | 326 | 1.7 | 8.7 | 0.00 | 0.00 | 0.00 | 99 | 961.6 |
| 20260905212850 | 51 | 74 | 1.7 | 5.2 | 0.00 | 0.00 | 0.00 | 99 | 961.5 |
| 20260905212350 | 51 | 78 | 1.7 | 5.2 | 0.00 | 0.00 | 0.00 | 99 | 961.4 |
| 20260905211850 | 51 | 228 | 1.7 | 7.0 | 0.00 | 0.00 | 0.00 | 98 | 961.4 |
| 20260905211350 | 51 | 90 | 1.7 | 7.0 | 0.00 | 0.00 | 0.00 | 99 | 961.4 |
| 20260905210850 | 51 | 127 | 1.7 | 6.1 | 0.00 | 0.00 | 0.00 | 99 | 961.3 |
| 20260905210350 | 51 | 70 | 1.7 | 6.1 | 0.00 | 0.00 | 0.00 | 98 | 961.2 |
| 20260905205850 | 51 | 107 | 1.7 | 4.3 | 0.00 | 0.00 | 0.00 | 98 | 961.0 |
| 20260905205350 | 51 | 90 | 1.7 | 7.8 | 0.00 | 0.00 | 0.00 | 98 | 960.9 |
| 20260905204849 | 51 | 32 | 2.6 | 7.8 | 0.00 | 0.00 | 0.00 | 98 | 960.9 |
| 20260905204349 | 51 | 94 | 2.6 | 7.0 | 0.00 | 0.00 | 0.00 | 98 | 961.0 |
| 20260905203849 | 51 | 112 | 2.6 | 6.1 | 0.00 | 0.00 | 0.00 | 98 | 961.0 |
| 20260905203349 | 52 | 233 | 1.7 | 6.1 | 0.00 | 0.00 | 0.00 | 98 | 960.9 |
| 20260905202849 | 52 | 123 | 1.7 | 6.1 | 0.00 | 0.00 | 0.00 | 98 | 960.9 |
| 20260905202349 | 52 | 83 | 1.7 | 7.8 | 0.00 | 0.00 | 0.00 | 98 | 960.9 |
| 20260905201849 | 52 | 311 | 1.7 | 7.8 | 0.00 | 0.00 | 0.00 | 98 | 960.7 |
| 20260905201349 | 52 | 251 | 1.7 | 7.8 | 0.00 | 0.00 | 0.00 | 98 | 960.7 |
| 20260905200849 | 52 | 273 | 1.7 | 5.2 | 0.00 | 0.00 | 0.00 | 98 | 960.7 |
| 20260905200349 | 52 | 182 | 2.6 | 6.1 | 0.00 | 0.00 | 0.00 | 98 | 960.7 |
| 20260905195849 | 52 | 236 | 3.5 | 6.1 | 0.00 | 0.00 | 0.00 | 98 | 960.6 |
| 20260905195349 | 52 | 237 | 3.5 | 7.0 | 0.00 | 0.00 | 0.00 | 97 | 960.5 |
| 20260905194849 | 52 | 236 | 4.3 | 7.0 | 0.00 | 0.00 | 0.00 | 96 | 960.5 |
| 20260905194349 | 52 | 229 | 4.3 | 7.0 | 0.00 | 0.00 | 0.00 | 94 | 960.4 |
| 20260905193849 | 52 | 233 | 4.3 | 7.0 | 0.00 | 0.00 | 0.00 | 91 | 960.4 |
| 20260905193348 | 52 | 236 | 4.3 | 7.0 | 0.00 | 0.00 | 0.00 | 90 | 960.3 |
| 20260905192848 | 52 | 206 | 3.5 | 7.0 | 0.00 | 0.00 | 0.00 | 91 | 960.4 |
| 20260905192348 | 53 | 234 | 3.5 | 7.0 | 0.00 | 0.00 | 0.00 | 93 | 960.4 |
| 20260905191848 | 53 | 231 | 4.3 | 7.0 | 0.00 | 0.00 | 0.00 | 91 | 960.3 |
| 20260905191348 | 53 | 236 | 4.3 | 5.2 | 0.00 | 0.00 | 0.00 | 90 | 960.3 |
| 20260905190848 | 53 | 236 | 3.5 | 5.2 | 0.00 | 0.00 | 0.00 | 89 | 960.1 |
| 20260905190348 | 53 | 237 | 3.5 | 5.2 | 0.00 | 0.00 | 0.00 | 88 | 960.1 |
| 20260905185848 | 53 | 234 | 3.5 | 5.2 | 0.00 | 0.00 | 0.00 | 89 | 960.1 |
| 20260905185348 | 53 | 238 | 3.5 | 5.2 | 0.00 | 0.00 | 0.00 | 91 | 959.9 |
| 20260905184848 | 53 | 236 | 3.5 | 4.3 | 0.00 | 0.00 | 0.00 | 92 | 960.0 |
| 20260905184348 | 52 | 240 | 2.6 | 4.3 | 0.00 | 0.00 | 0.00 | 91 | 960.0 |
| 20260905183848 | 53 | 240 | 2.6 | 3.5 | 0.00 | 0.00 | 0.00 | 91 | 959.8 |
| 20260905183348 | 53 | 236 | 2.6 | 3.5 | 0.00 | 0.00 | 0.00 | 89 | 959.8 |
| 20260905182848 | 53 | 235 | 2.6 | 3.5 | 0.00 | 0.00 | 0.00 | 89 | 959.8 |
| 20260905182348 | 53 | 238 | 2.6 | 4.3 | 0.00 | 0.00 | 0.00 | 89 | 959.6 |
| 20260905181848 | 53 | 240 | 2.6 | 4.3 | 0.00 | 0.00 | 0.00 | 89 | 959.6 |
| 20260905181348 | 53 | 246 | 2.6 | 3.5 | 0.00 | 0.00 | 0.00 | 89 | 959.7 |
| 20260905180847 | 53 | 231 | 2.6 | 3.5 | 0.00 | 0.00 | 0.00 | 91 | 959.5 |
| 20260905180347 | 53 | 234 | 1.7 | 3.5 | 0.00 | 0.00 | 0.00 | 92 | 959.5 |
| 20260905175847 | 53 | 238 | 2.6 | 3.5 | 0.00 | 0.00 | 0.00 | 92 | 959.4 |
| 20260905175347 | 53 | 234 | 2.6 | 3.5 | 0.00 | 0.00 | 0.00 | 91 | 959.4 |
| 20260905174847 | 53 | 236 | 2.6 | 3.5 | 0.00 | 0.00 | 0.00 | 90 | 959.3 |
| 20260905174347 | 53 | 239 | 1.7 | 3.5 | 0.00 | 0.00 | 0.00 | 89 | 959.3 |
| 20260905173847 | 54 | 236 | 1.7 | 2.6 | 0.00 | 0.00 | 0.00 | 88 | 959.2 |
| 20260905173347 | 54 | 249 | 1.7 | 2.6 | 0.00 | 0.00 | 0.00 | 86 | 959.1 |
| 20260905172847 | 54 | 249 | 1.7 | 2.6 | 0.00 | 0.00 | 0.00 | 85 | 959.0 |
| 20260905172347 | 54 | 250 | 1.7 | 2.6 | 0.00 | 0.00 | 0.00 | 85 | 959.1 |
| 20260905171847 | 54 | 246 | 1.7 | 1.7 | 0.00 | 0.00 | 0.00 | 86 | 959.0 |
| 20260905171347 | 55 | 241 | 1.7 | 2.6 | 0.00 | 0.00 | 0.00 | 85 | 958.9 |
| 20260905170847 | 55 | 239 | 1.7 | 3.5 | 0.00 | 0.00 | 0.00 | 84 | 958.8 |
| 20260905170347 | 55 | 250 | 1.7 | 3.5 | 0.00 | 0.00 | 0.00 | 83 | 958.8 |
| 20260905165847 | 55 | 247 | 1.7 | 3.5 | 0.00 | 0.00 | 0.00 | 82 | 958.7 |
| 20260905165347 | 55 | 250 | 1.7 | 3.5 | 0.00 | 0.00 | 0.00 | 84 | 958.6 |
| 20260905164847 | 56 | 244 | 1.7 | 3.5 | 0.00 | 0.00 | 0.00 | 81 | 958.5 |
| 20260905164347 | 56 | 246 | 1.7 | 5.2 | 0.00 | 0.00 | 0.00 | 83 | 958.4 |
| 20260905163847 | 56 | 279 | 2.6 | 5.2 | 0.00 | 0.00 | 0.00 | 82 | 958.4 |
| 20260905163346 | 56 | 218 | 2.6 | 5.2 | 0.00 | 0.00 | 0.00 | 81 | 958.5 |
| 20260905162846 | 56 | 238 | 1.7 | 4.3 | 0.00 | 0.00 | 0.00 | 81 | 958.5 |
| 20260905162346 | 56 | 235 | 1.7 | 4.3 | 0.00 | 0.00 | 0.00 | 82 | 958.3 |
| 20260905161846 | 56 | 266 | 1.7 | 4.3 | 0.00 | 0.00 | 0.00 | 80 | 958.2 |
| 20260905161346 | 56 | 239 | 2.6 | 4.3 | 0.00 | 0.00 | 0.00 | 81 | 958.0 |
| 20260905160846 | 56 | 241 | 2.6 | 4.3 | 0.00 | 0.00 | 0.00 | 83 | 958.0 |
| 20260905160346 | 56 | 274 | 2.6 | 4.3 | 0.00 | 0.00 | 0.00 | 81 | 958.1 |
| 20260905155846 | 56 | 293 | 2.6 | 5.2 | 0.00 | 0.00 | 0.00 | 82 | 958.0 |
| 20260905155346 | 56 | 299 | 2.6 | 5.2 | 0.00 | 0.00 | 0.00 | 84 | 958.0 |
| 20260905154846 | 56 | 240 | 2.6 | 5.2 | 0.00 | 0.00 | 0.00 | 85 | 958.0 |
| 20260905154346 | 56 | 203 | 2.6 | 5.2 | 0.00 | 0.00 | 0.00 | 85 | 958.0 |
| 20260905153846 | 56 | 259 | 3.5 | 7.0 | 0.00 | 0.00 | 0.00 | 87 | 958.0 |
| 20260905153346 | 56 | 270 | 3.5 | 7.0 | 0.00 | 0.00 | 0.00 | 85 | 958.0 |
| 20260905152846 | 56 | 308 | 3.5 | 6.1 | 0.00 | 0.00 | 0.00 | 85 | 957.9 |
| 20260905152346 | 56 | 298 | 3.5 | 6.1 | 0.00 | 0.00 | 0.00 | 84 | 957.8 |
| 20260905151846 | 56 | 233 | 3.5 | 6.1 | 0.00 | 0.00 | 0.00 | 85 | 957.8 |
| 20260905151346 | 56 | 280 | 3.5 | 7.0 | 0.00 | 0.00 | 0.00 | 84 | 957.8 |
| 20260905150845 | 56 | 255 | 3.5 | 7.0 | 0.00 | 0.00 | 0.00 | 87 | 957.8 |
| 20260905150345 | 56 | 306 | 2.6 | 6.1 | 0.00 | 0.00 | 0.00 | 83 | 957.7 |
| 20260905145845 | 57 | 230 | 2.6 | 6.1 | 0.00 | 0.00 | 0.00 | 84 | 957.7 |
| 20260905145345 | 56 | 307 | 2.6 | 4.3 | 0.00 | 0.00 | 0.00 | 81 | 957.7 |
| 20260905144845 | 56 | 255 | 2.6 | 4.3 | 0.00 | 0.00 | 0.00 | 85 | 957.7 |
| 20260905144345 | 56 | 277 | 2.6 | 7.0 | 0.00 | 0.00 | 0.00 | 82 | 957.6 |
| 20260905143845 | 56 | 315 | 2.6 | 7.0 | 0.00 | 0.00 | 0.00 | 80 | 957.7 |
| 20260905143345 | 56 | 277 | 2.6 | 5.2 | 0.00 | 0.00 | 0.00 | 79 | 957.5 |
| 20260905142845 | 56 | 313 | 2.6 | 7.0 | 0.00 | 0.00 | 0.00 | 81 | 957.4 |
| 20260905142345 | 55 | 272 | 2.6 | 7.0 | 0.00 | 0.00 | 0.00 | 83 | 957.4 |
| 20260905141845 | 56 | 268 | 3.5 | 6.1 | 0.00 | 0.00 | 0.00 | 81 | 957.2 |
| 20260905141345 | 57 | 323 | 3.5 | 6.1 | 0.00 | 0.00 | 0.00 | 77 | 957.5 |
| 20260905140845 | 58 | 299 | 2.6 | 8.7 | 0.00 | 0.00 | 0.00 | 74 | 957.2 |
| 20260905140345 | 60 | 274 | 1.7 | 9.6 | 0.00 | 0.00 | 0.00 | 76 | 957.1 |
| 20260905135844 | 60 | 242 | 2.6 | 9.6 | 0.00 | 0.00 | 0.00 | 78 | 957.1 |
| 20260905135344 | 60 | 141 | 1.7 | 7.0 | 0.00 | 0.00 | 0.00 | 76 | 957.1 |
| 20260905134844 | 61 | 216 | 1.7 | 5.2 | 0.00 | 0.00 | 0.00 | 72 | 957.1 |
| 20260905134344 | 60 | 136 | 1.7 | 5.2 | 0.00 | 0.00 | 0.00 | 76 | 956.9 |
| 20260905133844 | 58 | 234 | 1.7 | 4.3 | 0.00 | 0.00 | 0.00 | 77 | 956.9 |
| 20260905133344 | 58 | 272 | 1.7 | 4.3 | 0.00 | 0.00 | 0.00 | 81 | 957.0 |
| 20260905132844 | 58 | 329 | 1.7 | 4.3 | 0.00 | 0.00 | 0.00 | 80 | 956.8 |
| 20260905132345 | 58 | 164 | 1.7 | 7.0 | 0.00 | 0.00 | 0.00 | 84 | 956.9 |
| 20260905131844 | 58 | 262 | 1.7 | 7.0 | 0.00 | 0.00 | 0.00 | 80 | 956.9 |
| 20260905131344 | 59 | 81 | 1.7 | 6.1 | 0.00 | 0.00 | 0.00 | 81 | 957.0 |
| 20260905130844 | 58 | 120 | 2.6 | 7.8 | 0.00 | 0.00 | 0.00 | 83 | 957.0 |
| 20260905130344 | 57 | 255 | 3.5 | 7.8 | 0.00 | 0.00 | 0.00 | 81 | 956.9 |
| 20260905125844 | 57 | 255 | 2.6 | 7.0 | 0.00 | 0.00 | 0.00 | 81 | 956.8 |
| 20260905125344 | 56 | 282 | 3.5 | 7.0 | 0.00 | 0.00 | 0.00 | 85 | 956.9 |
| 20260905124844 | 56 | 247 | 3.5 | 7.8 | 0.00 | 0.00 | 0.00 | 86 | 956.8 |
| 20260905124344 | 55 | 249 | 3.5 | 9.6 | 0.00 | 0.00 | 0.00 | 91 | 956.9 |
| 20260905123843 | 54 | 247 | 3.5 | 9.6 | 0.00 | 0.00 | 0.00 | 91 | 956.8 |
| 20260905123343 | 55 | 243 | 3.5 | 8.7 | 0.00 | 0.00 | 0.00 | 93 | 956.8 |
| 20260905122843 | 54 | 260 | 3.5 | 6.1 | 0.00 | 0.00 | 0.00 | 96 | 956.6 |
| 20260905122343 | 54 | 295 | 2.6 | 6.1 | 0.00 | 0.00 | 0.00 | 94 | 956.6 |
| 20260905121843 | 53 | 268 | 2.6 | 6.1 | 0.00 | 0.00 | 0.00 | 95 | 956.6 |
| 20260905121343 | 54 | 300 | 2.6 | 5.2 | 0.00 | 0.00 | 0.00 | 95 | 956.6 |
| 20260905120843 | 54 | 286 | 2.6 | 5.2 | 0.00 | 0.00 | 0.00 | 93 | 956.5 |
| 20260905120343 | 55 | 283 | 2.6 | 6.1 | 0.00 | 0.00 | 0.00 | 88 | 956.5 |
| 20260905115843 | 56 | 282 | 2.6 | 6.1 | 0.00 | 0.00 | 0.00 | 80 | 956.5 |
| 20260905115343 | 57 | 239 | 1.7 | 6.1 | 0.00 | 0.00 | 0.00 | 76 | 956.6 |
| 20260905114843 | 58 | 222 | 1.7 | 5.2 | 0.00 | 0.00 | 0.00 | 78 | 956.5 |
| 20260905114343 | 60 | 211 | 0.9 | 4.3 | 0.00 | 0.00 | 0.00 | 80 | 956.6 |
| 20260905113843 | 61 | 226 | 1.7 | 7.0 | 0.00 | 0.00 | 0.00 | 80 | 956.4 |
| 20260905113313 | 60 | 249 | 1.7 | 7.0 | 0.00 | 0.00 | 0.00 | 77 | 956.3 |
| 20260905112813 | 61 | 55 | 1.7 | 7.0 | 0.00 | 0.00 | 0.00 | 82 | 956.5 |
| 20260905112313 | 61 | 121 | 1.7 | 7.0 | 0.00 | 0.00 | 0.00 | 78 | 956.2 |
| 20260905111812 | 61 | 141 | 1.7 | 7.0 | 0.00 | 0.00 | 0.00 | 82 | 956.3 |
| 20260905111312 | 60 | 136 | 1.7 | 7.0 | 0.00 | 0.00 | 0.00 | 84 | 956.3 |
| 20260905110812 | 59 | 91 | 1.7 | 6.1 | 0.00 | 0.00 | 0.00 | 87 | 956.1 |
| 20260905110312 | 58 | 128 | 1.7 | 6.1 | 0.00 | 0.00 | 0.00 | 88 | 956.1 |
| 20260905105812 | 57 | 81 | 0.9 | 4.3 | 0.00 | 0.00 | 0.00 | 91 | 956.0 |
| 20260905105312 | 57 | 167 | 0.9 | 4.3 | 0.00 | 0.00 | 0.00 | 92 | 956.0 |
| 20260905104812 | 56 | 326 | 1.7 | 5.2 | 0.00 | 0.00 | 0.00 | 93 | 956.0 |
| 20260905104312 | 56 | 153 | 0.9 | 5.2 | 0.00 | 0.00 | 0.00 | 94 | 956.0 |
| 20260905103812 | 56 | 155 | 0.9 | 5.2 | 0.00 | 0.00 | 0.00 | 94 | 956.0 |
| 20260905103312 | 56 | 111 | 0.9 | 5.2 | 0.00 | 0.00 | 0.00 | 95 | 956.0 |
| 20260905102812 | 56 | 16 | 0.9 | 3.5 | 0.00 | 0.00 | 0.00 | 96 | 956.0 |
| 20260905102312 | 55 | 234 | 0.9 | 4.3 | 0.00 | 0.00 | 0.00 | 95 | 956.0 |
| 20260905101812 | 55 | 89 | 0.9 | 4.3 | 0.00 | 0.00 | 0.00 | 95 | 956.0 |
| 20260905101312 | 56 | 154 | 0.9 | 4.3 | 0.00 | 0.00 | 0.00 | 96 | 955.9 |
| 20260905100812 | 56 | 189 | 0.9 | 4.3 | 0.00 | 0.00 | 0.00 | 96 | 955.9 |
| 20260905100312 | 56 | 204 | 0.9 | 4.3 | 0.00 | 0.00 | 0.00 | 96 | 955.8 |
| 20260905095812 | 56 | 84 | 0.9 | 4.3 | 0.00 | 0.00 | 0.00 | 97 | 955.6 |
| 20260905095311 | 56 | 78 | 0.9 | 4.3 | 0.00 | 0.00 | 0.00 | 96 | 955.6 |
| 20260905094811 | 56 | 175 | 0.9 | 4.3 | 0.00 | 0.00 | 0.00 | 97 | 955.6 |
| 20260905094311 | 55 | 169 | 0.9 | 3.5 | 0.00 | 0.00 | 0.00 | 97 | 955.5 |
| 20260905093811 | 55 | 167 | 0.0 | 2.6 | 0.00 | 0.00 | 0.00 | 98 | 955.6 |
| 20260905093311 | 54 | 151 | 0.9 | 3.5 | 0.00 | 0.00 | 0.00 | 97 | 955.4 |
| 20260905092811 | 53 | 174 | 1.7 | 3.5 | 0.00 | 0.00 | 0.00 | 98 | 955.4 |
| 20260905092311 | 53 | 339 | 1.7 | 4.3 | 0.00 | 0.00 | 0.00 | 97 | 955.2 |
| 20260905091811 | 53 | 277 | 1.7 | 4.3 | 0.00 | 0.00 | 0.00 | 98 | 955.3 |
| 20260905091311 | 53 | 16 | 1.7 | 4.3 | 0.00 | 0.00 | 0.00 | 97 | 955.3 |
| 20260905090811 | 53 | 45 | 1.7 | 5.2 | 0.00 | 0.00 | 0.00 | 99 | 955.4 |
| 20260905090311 | 52 | 2 | 1.7 | 5.2 | 0.00 | 0.00 | 0.00 | 10 | 955.3 |
| 20260905085811 | 52 | 37 | 1.7 | 4.3 | 0.00 | 0.00 | 0.00 | 10 | 955.1 |
| 20260905085311 | 51 | 170 | 1.7 | 4.3 | 0.00 | 0.00 | 0.00 | 10 | 955.1 |
| 20260905084811 | 51 | 314 | 2.6 | 5.2 | 0.00 | 0.00 | 0.00 | 10 | 955.0 |
| 20260905084311 | 51 | 325 | 2.6 | 6.1 | 0.00 | 0.00 | 0.00 | 10 | 955.0 |
| 20260905083810 | 51 | 356 | 2.6 | 6.1 | 0.00 | 0.00 | 0.00 | 10 | 955.0 |
| 20260905083310 | 51 | 260 | 1.7 | 4.3 | 0.00 | 0.00 | 0.00 | 10 | 954.9 |
| 20260905082810 | 51 | 339 | 1.7 | 4.3 | 0.00 | 0.00 | 0.00 | 10 | 954.9 |
| 20260905082310 | 51 | 272 | 1.7 | 4.3 | 0.00 | 0.00 | 0.00 | 10 | 954.9 |
| 20260905081810 | 51 | 259 | 1.7 | 3.5 | 0.00 | 0.00 | 0.00 | 99 | 954.8 |
| 20260905081310 | 51 | 331 | 0.9 | 3.5 | 0.00 | 0.00 | 0.00 | 99 | 954.8 |
| 20260905080810 | 52 | 9 | 0.9 | 2.6 | 0.00 | 0.00 | 0.00 | 10 | 954.8 |
| 20260905080310 | 52 | 148 | 0.9 | 2.6 | 0.00 | 0.00 | 0.00 | 10 | 954.8 |
| 20260905075810 | 51 | 50 | 0.9 | 2.6 | 0.00 | 0.00 | 0.00 | 10 | 954.8 |
| 20260905075310 | 51 | 238 | 0.9 | 2.6 | 0.00 | 0.00 | 0.00 | 10 | 954.8 |
| 20260905074810 | 51 | 53 | 0.9 | 3.5 | 0.00 | 0.00 | 0.00 | 10 | 954.7 |
| 20260905074310 | 50 | 349 | 0.9 | 5.2 | 0.00 | 0.00 | 0.00 | 10 | 954.7 |
| 20260905073810 | 50 | 93 | 1.7 | 5.2 | 0.00 | 0.00 | 0.00 | 10 | 954.7 |
| 20260905073310 | 50 | 338 | 1.7 | 4.3 | 0.00 | 0.00 | 0.00 | 10 | 954.6 |
| 20260905072809 | 50 | 35 | 1.7 | 4.3 | 0.00 | 0.00 | 0.00 | 10 | 954.5 |
| 20260905072309 | 49 | 0 | 1.7 | 4.3 | 0.00 | 0.00 | 0.00 | 10 | 954.4 |
| 20260905071809 | 49 | 344 | 2.6 | 4.3 | 0.00 | 0.00 | 0.00 | 10 | 954.4 |
| 20260905071309 | 49 | 247 | 2.6 | 4.3 | 0.00 | 0.00 | 0.00 | 10 | 954.3 |
| 20260905070809 | 49 | 248 | 2.6 | 5.2 | 0.00 | 0.00 | 0.00 | 10 | 954.2 |
| 20260905070309 | 49 | 281 | 2.6 | 5.2 | 0.00 | 0.00 | 0.00 | 10 | 954.2 |
| 20260905065809 | 50 | 242 | 0.9 | 5.2 | 0.00 | 0.00 | 0.00 | 99 | 954.2 |
| 20260905065309 | 51 | 240 | 0.9 | 2.6 | 0.00 | 0.00 | 0.00 | 99 | 954.3 |
| 20260905064809 | 50 | 144 | 0.9 | 2.6 | 0.00 | 0.00 | 0.00 | 10 | 954.3 |
| 20260905064309 | 50 | 247 | 0.9 | 2.6 | 0.00 | 0.00 | 0.00 | 99 | 954.1 |
| 20260905063809 | 50 | 87 | 0.0 | 0.9 | 0.00 | 0.00 | 0.00 | 10 | 954.2 |
| 20260905063309 | 49 | 68 | 0.0 | 1.7 | 0.00 | 0.00 | 0.00 | 10 | 954.1 |
| 20260905062809 | 49 | 189 | 0.9 | 2.6 | 0.00 | 0.00 | 0.00 | 10 | 954.1 |
| 20260905062309 | 48 | 159 | 0.9 | 2.6 | 0.00 | 0.00 | 0.00 | 10 | 954.1 |
| 20260905061809 | 49 | 94 | 0.0 | 1.7 | 0.00 | 0.00 | 0.00 | 10 | 954.0 |
| 20260905061309 | 48 | 216 | 0.0 | 1.7 | 0.00 | 0.00 | 0.00 | 10 | 954.0 |
| 20260905060809 | 48 | 146 | 0.9 | 1.7 | 0.00 | 0.00 | 0.00 | 10 | 953.9 |
| 20260905060308 | 48 | 115 | 0.9 | 3.5 | 0.00 | 0.00 | 0.00 | 10 | 953.9 |
| 20260905055808 | 47 | 56 | 1.7 | 3.5 | 0.00 | 0.00 | 0.00 | 10 | 953.9 |
| 20260905055308 | 47 | 333 | 1.7 | 3.5 | 0.00 | 0.00 | 0.00 | 10 | 953.8 |
| 20260905054808 | 47 | 282 | 1.7 | 3.5 | 0.00 | 0.00 | 0.00 | 10 | 953.8 |
| 20260905054308 | 47 | 295 | 1.7 | 3.5 | 0.00 | 0.00 | 0.00 | 10 | 953.8 |
| 20260905053808 | 47 | 238 | 0.9 | 2.6 | 0.00 | 0.00 | 0.00 | 10 | 953.7 |
| 20260905053308 | 47 | 248 | 0.9 | 1.7 | 0.00 | 0.00 | 0.00 | 10 | 953.6 |
| 20260905052738 | 47 | 219 | 0.9 | 2.6 | 0.00 | 0.00 | 0.00 | 10 | 953.8 |
| 20260905052238 | 47 | 119 | 0.9 | 2.6 | 0.00 | 0.00 | 0.00 | 10 | 953.7 |
| 20260905051738 | 47 | 132 | 0.9 | 3.5 | 0.00 | 0.00 | 0.00 | 10 | 953.7 |
| 20260905051238 | 47 | 2 | 0.9 | 3.5 | 0.00 | 0.00 | 0.00 | 10 | 953.6 |
| 20260905050738 | 47 | 306 | 0.9 | 1.7 | 0.00 | 0.00 | 0.00 | 10 | 953.6 |
| 20260905050238 | 46 | 344 | 0.9 | 1.7 | 0.00 | 0.00 | 0.00 | 10 | 953.5 |
| 20260905045738 | 46 | 258 | 0.9 | 2.6 | 0.00 | 0.00 | 0.00 | 10 | 953.6 |
| 20260905045238 | 46 | 306 | 0.9 | 2.6 | 0.00 | 0.00 | 0.00 | 99 | 953.5 |
| 20260905044738 | 46 | 259 | 0.9 | 2.6 | 0.00 | 0.00 | 0.00 | 98 | 953.5 |
| 20260905044237 | 47 | 89 | 0.9 | 2.6 | 0.00 | 0.00 | 0.00 | 98 | 953.4 |
| 20260905043737 | 47 | 147 | 0.9 | 2.6 | 0.00 | 0.00 | 0.00 | 98 | 953.4 |
| 20260905043237 | 47 | 128 | 0.9 | 1.7 | 0.00 | 0.00 | 0.00 | 98 | 953.4 |
| 20260905042737 | 47 | 107 | 0.0 | 1.7 | 0.00 | 0.00 | 0.00 | 98 | 953.4 |
| 20260905042237 | 47 | 139 | 0.0 | 1.7 | 0.00 | 0.00 | 0.00 | 99 | 953.5 |
| 20260905041737 | 47 | 120 | 0.0 | 2.6 | 0.00 | 0.00 | 0.00 | 99 | 953.5 |
| 20260905041237 | 46 | 95 | 0.9 | 3.5 | 0.00 | 0.00 | 0.00 | 99 | 953.5 |
| 20260905040737 | 47 | 118 | 0.9 | 3.5 | 0.00 | 0.00 | 0.00 | 98 | 953.5 |
| 20260905040237 | 47 | 93 | 0.0 | 1.7 | 0.00 | 0.00 | 0.00 | 99 | 953.5 |
| 20260905035737 | 47 | 156 | 0.0 | 0.9 | 0.00 | 0.00 | 0.00 | 98 | 953.4 |
| 20260905035237 | 46 | 147 | 0.0 | 1.7 | 0.00 | 0.00 | 0.00 | 99 | 953.4 |
| 20260905034737 | 46 | 222 | 0.0 | 1.7 | 0.00 | 0.00 | 0.00 | 99 | 953.4 |
| 20260905034237 | 46 | 90 | 0.9 | 1.7 | 0.00 | 0.00 | 0.00 | 99 | 953.4 |
| 20260905033737 | 45 | 229 | 0.9 | 2.6 | 0.00 | 0.00 | 0.00 | 99 | 953.3 |
| 20260905033236 | 45 | 81 | 0.9 | 2.6 | 0.00 | 0.00 | 0.00 | 99 | 953.2 |
| 20260905032736 | 45 | 53 | 0.9 | 1.7 | 0.00 | 0.00 | 0.00 | 10 | 953.2 |
| 20260905032236 | 45 | 150 | 0.9 | 2.6 | 0.00 | 0.00 | 0.00 | 10 | 953.1 |
| 20260905031736 | 44 | 104 | 0.9 | 2.6 | 0.00 | 0.00 | 0.00 | 10 | 953.2 |
| 20260905031236 | 44 | 103 | 0.9 | 3.5 | 0.00 | 0.00 | 0.00 | 10 | 953.1 |
| 20260905030736 | 44 | 35 | 1.7 | 3.5 | 0.00 | 0.00 | 0.00 | 10 | 953.2 |
| 20260905030236 | 44 | 301 | 2.6 | 4.3 | 0.00 | 0.00 | 0.00 | 10 | 953.1 |
| 20260905025736 | 44 | 308 | 2.6 | 4.3 | 0.00 | 0.00 | 0.00 | 10 | 953.1 |
| 20260905025236 | 43 | 317 | 1.7 | 4.3 | 0.00 | 0.00 | 0.00 | 10 | 953.1 |
| 20260905024736 | 43 | 333 | 0.9 | 3.5 | 0.00 | 0.00 | 0.00 | 10 | 953.1 |
| 20260905024236 | 43 | 258 | 0.9 | 2.6 | 0.00 | 0.00 | 0.00 | 10 | 952.9 |
| 20260905023736 | 43 | 245 | 0.9 | 2.6 | 0.00 | 0.00 | 0.00 | 10 | 952.9 |
| 20260905023236 | 43 | 257 | 0.9 | 1.7 | 0.00 | 0.00 | 0.00 | 10 | 952.9 |
| 20260905022736 | 43 | 169 | 0.9 | 3.5 | 0.00 | 0.00 | 0.00 | 10 | 952.8 |
| 20260905022236 | 43 | 131 | 2.6 | 5.2 | 0.00 | 0.00 | 0.00 | 10 | 952.8 |
| 20260905021735 | 43 | 3 | 2.6 | 5.2 | 0.00 | 0.00 | 0.00 | 10 | 952.8 |
| 20260905021235 | 43 | 313 | 3.5 | 5.2 | 0.00 | 0.00 | 0.00 | 10 | 952.8 |
| 20260905020735 | 42 | 298 | 3.5 | 5.2 | 0.00 | 0.00 | 0.00 | 10 | 952.8 |
| 20260905020235 | 42 | 292 | 3.5 | 5.2 | 0.00 | 0.00 | 0.00 | 10 | 952.8 |
| 20260905015735 | 42 | 341 | 2.6 | 5.2 | 0.00 | 0.00 | 0.00 | 10 | 953.0 |
| 20260905015235 | 43 | 301 | 2.6 | 5.2 | 0.00 | 0.00 | 0.00 | 10 | 952.9 |
| 20260905014735 | 43 | 281 | 3.5 | 5.2 | 0.00 | 0.00 | 0.00 | 10 | 952.8 |
| 20260905014235 | 44 | 295 | 3.5 | 5.2 | 0.00 | 0.00 | 0.00 | 10 | 953.0 |
| 20260905013235 | 44 | 325 | 1.7 | 3.5 | 0.00 | 0.00 | 0.00 | 10 | 953.0 |
| 20260905012735 | 44 | 238 | 0.9 | 2.6 | 0.00 | 0.00 | 0.00 | 10 | 952.9 |
| 20260905012235 | 45 | 230 | 0.0 | 1.7 | 0.00 | 0.00 | 0.00 | 10 | 953.0 |
| 20260905011735 | 45 | 167 | 0.0 | 1.7 | 0.00 | 0.00 | 0.00 | 10 | 952.9 |
| 20260905011235 | 44 | 135 | 0.9 | 2.6 | 0.00 | 0.00 | 0.00 | 10 | 953.0 |
| 20260905010734 | 44 | 113 | 0.9 | 2.6 | 0.00 | 0.00 | 0.00 | 10 | 953.0 |
| 20260905010234 | 44 | 267 | 0.0 | 2.6 | 0.00 | 0.00 | 0.00 | 10 | 953.0 |
| 20260905005734 | 44 | 286 | 0.0 | 0.9 | 0.00 | 0.00 | 0.00 | 10 | 953.1 |
| 20260905005234 | 44 | 235 | 0.0 | 1.7 | 0.00 | 0.00 | 0.00 | 10 | 953.1 |
| 20260905004734 | 44 | 133 | 0.0 | 1.7 | 0.00 | 0.00 | 0.00 | 10 | 953.1 |
| 20260905004234 | 44 | 226 | 0.0 | 1.7 | 0.00 | 0.00 | 0.00 | 10 | 952.9 |
| 20260905003734 | 44 | 343 | 0.9 | 2.6 | 0.00 | 0.00 | 0.00 | 10 | 952.9 |
| 20260905003234 | 44 | 288 | 1.7 | 3.5 | 0.00 | 0.00 | 0.00 | 10 | 952.8 |
| 20260905002734 | 44 | 258 | 2.6 | 4.3 | 0.00 | 0.00 | 0.00 | 10 | 952.8 |
| 20260905002234 | 44 | 279 | 3.5 | 4.3 | 0.00 | 0.00 | 0.00 | 10 | 952.8 |
| 20260905001734 | 44 | 273 | 3.5 | 4.3 | 0.00 | 0.00 | 0.00 | 10 | 952.8 |
| 20260905001234 | 44 | 274 | 3.5 | 4.3 | 0.00 | 0.00 | 0.00 | 10 | 952.7 |
| 20260905000734 | 44 | 260 | 3.5 | 4.3 | 0.00 | 0.00 | 0.00 | 10 | 952.8 |
| 20260905000233 | 44 | 272 | 3.5 | 5.2 | 0.00 | 0.00 | 0.00 | 10 | 952.8 |
| 20260904235733 | 44 | 262 | 3.5 | 5.2 | 0.00 | 0.00 | 0.00 | 10 | 952.8 |
| 20260904235233 | 44 | 260 | 3.5 | 5.2 | 0.00 | 0.00 | 0.00 | 10 | 952.8 |
| 20260904234733 | 44 | 255 | 3.5 | 4.3 | 0.00 | 0.00 | 0.00 | 10 | 952.9 |
| 20260904234233 | 44 | 269 | 3.5 | 4.3 | 0.00 | 0.00 | 0.00 | 10 | 952.9 |
| 20260904233733 | 44 | 264 | 3.5 | 4.3 | 0.00 | 0.00 | 0.00 | 10 | 952.9 |
| 20260904233233 | 45 | 275 | 2.6 | 3.5 | 0.00 | 0.00 | 0.00 | 10 | 952.8 |